FW7220 Weather Reports


Display with metric or nautical units.
time (UTC)temp
F
wind
direction
speed
MPH
gust
MPH
rain 1hr
in
rain 24hr
in
rain mn
in
humidity
%
barometer
mb
20260509124044 71 0 0.0 0.0 0.00 0.00 0.00 90 1010.7
20260509123548 71 0 0.0 0.0 0.00 0.00 0.00 90 1010.5
20260509123105 71 0 0.0 0.0 0.00 0.00 0.00 90 1010.4
20260509122547 71 0 0.0 0.0 0.00 0.00 0.00 90 1010.3
20260509122046 71 0 0.0 0.0 0.00 0.00 0.00 90 1010.4
20260509121603 71 0 0.0 0.0 0.00 0.00 0.00 90 1010.3
20260509121049 71 0 0.0 0.0 0.00 0.00 0.00 90 1010.1
20260509120547 71 0 0.0 2.0 0.00 0.00 0.00 90 1010.2
20260509120055 71 0 0.0 8.0 0.00 0.00 0.00 90 1009.9
20260509115549 71 0 0.0 8.0 0.00 0.00 0.00 90 1009.7
20260509115046 71 0 1.0 8.0 0.00 0.00 0.00 90 1009.4
20260509114600 71 276 1.0 7.0 0.00 0.00 0.00 90 1008.9
20260509114047 71 259 1.0 7.0 0.00 0.00 0.00 90 1008.8
20260509113550 71 0 0.0 4.0 0.00 0.00 0.00 90 1009.1
20260509113048 71 0 0.0 0.0 0.00 0.00 0.00 89 1009.5
20260509112546 71 0 0.0 0.0 0.00 0.00 0.00 89 1009.6
20260509112046 71 0 0.0 0.0 0.00 0.00 0.00 89 1009.6
20260509111551 71 0 0.0 1.0 0.00 0.00 0.00 89 1009.8
20260509111049 71 0 0.0 1.0 0.00 0.00 0.00 89 1009.7
20260509110547 71 245 0.0 0.0 0.00 0.00 0.00 89 1009.7
20260509110049 71 0 0.0 0.0 0.00 0.00 0.00 89 1009.9
20260509105545 71 0 0.0 2.0 0.00 0.00 0.00 89 1009.9
20260509105046 71 0 0.0 5.0 0.00 0.00 0.00 89 1009.7
20260509104551 71 0 0.0 5.0 0.00 0.00 0.00 89 1009.6
20260509104045 71 0 0.0 5.0 0.00 0.00 0.00 89 1009.3
20260509103546 71 0 0.0 0.0 0.00 0.00 0.00 88 1009.5
20260509103051 71 0 0.0 0.0 0.00 0.00 0.00 88 1009.6
20260509102547 71 0 0.0 0.0 0.00 0.00 0.00 88 1009.8
20260509102047 71 0 0.0 0.0 0.00 0.00 0.00 88 1009.9
20260509101550 71 0 0.0 0.0 0.00 0.00 0.00 88 1010.0
20260509101046 71 0 0.0 0.0 0.00 0.00 0.00 88 1010.1
20260509100548 71 0 0.0 0.0 0.00 0.00 0.00 88 1010.1
20260509100057 71 0 0.0 0.0 0.00 0.00 0.00 88 1010.3
20260509095547 71 0 0.0 0.0 0.00 0.00 0.00 88 1010.2
20260509095046 71 0 0.0 0.0 0.00 0.00 0.00 88 1010.2
20260509094552 71 0 0.0 0.0 0.00 0.00 0.00 88 1010.4
20260509094047 71 0 0.0 0.0 0.00 0.00 0.00 88 1010.2
20260509093545 71 0 0.0 0.0 0.00 0.00 0.00 88 1010.2
20260509093054 71 0 0.0 0.0 0.00 0.00 0.00 88 1010.4
20260509092545 71 0 0.0 0.0 0.00 0.00 0.00 88 1010.6
20260509092046 71 0 0.0 0.0 0.00 0.00 0.00 88 1010.7
20260509091558 71 0 0.0 0.0 0.00 0.00 0.00 88 1010.8
20260509091047 71 0 0.0 0.0 0.00 0.00 0.00 88 1010.7
20260509090547 71 0 0.0 0.0 0.00 0.00 0.00 88 1010.9
20260509090104 71 0 0.0 0.0 0.00 0.00 0.00 88 1010.9
20260509085550 71 0 0.0 0.0 0.00 0.00 0.00 88 1010.9
20260509085046 71 0 0.0 0.0 0.00 0.00 0.00 88 1010.6
20260509084553 71 0 0.0 0.0 0.00 0.00 0.00 88 1010.6
20260509084047 71 0 0.0 0.0 0.00 0.00 0.00 88 1010.7
20260509083545 71 0 0.0 0.0 0.00 0.00 0.00 88 1010.6
20260509083057 71 0 0.0 0.0 0.00 0.00 0.00 88 1010.8
20260509082545 71 0 0.0 0.0 0.00 0.00 0.00 88 1010.9
20260509082046 71 0 0.0 0.0 0.00 0.00 0.00 88 1010.9
20260509081552 71 0 0.0 0.0 0.00 0.00 0.00 88 1011.0
20260509081047 71 0 0.0 0.0 0.00 0.00 0.00 88 1011.2
20260509080546 71 0 0.0 0.0 0.00 0.00 0.00 88 1011.4
20260509080107 71 0 0.0 0.0 0.00 0.00 0.00 88 1011.3
20260509075548 71 0 0.0 0.0 0.00 0.00 0.00 88 1011.3
20260509075052 71 0 0.0 1.0 0.00 0.00 0.00 88 1011.3
20260509074551 71 0 0.0 1.0 0.00 0.00 0.00 88 1011.3
20260509074052 71 0 0.0 1.0 0.00 0.00 0.00 87 1011.4
20260509073546 71 0 0.0 0.0 0.00 0.00 0.00 87 1011.4
20260509073107 71 0 0.0 0.0 0.00 0.00 0.00 87 1011.4
20260509072547 71 0 0.0 0.0 0.00 0.00 0.00 87 1011.4
20260509072048 71 0 0.0 0.0 0.00 0.00 0.00 87 1011.3
20260509071558 71 0 0.0 0.0 0.00 0.00 0.00 87 1011.3
20260509071046 71 0 0.0 0.0 0.00 0.00 0.00 87 1010.9
20260509070546 71 0 0.0 0.0 0.00 0.00 0.00 87 1010.7
20260509070058 71 0 0.0 0.0 0.00 0.00 0.00 87 1010.6
20260509065545 71 0 0.0 0.0 0.00 0.00 0.00 87 1010.7
20260509065045 71 0 0.0 0.0 0.00 0.00 0.00 87 1010.9
20260509064551 71 0 0.0 0.0 0.00 0.00 0.00 87 1010.9
20260509064046 71 0 0.0 0.0 0.00 0.00 0.00 87 1011.1
20260509063546 71 0 0.0 0.0 0.00 0.00 0.00 87 1010.9
20260509063103 71 0 0.0 0.0 0.00 0.00 0.00 87 1011.2
20260509062547 71 0 0.0 0.0 0.00 0.00 0.00 87 1011.1
20260509062048 71 0 0.0 0.0 0.00 0.00 0.00 87 1011.3
20260509061556 71 0 0.0 0.0 0.00 0.00 0.00 87 1011.3
20260509061046 71 0 0.0 0.0 0.00 0.00 0.00 87 1011.2
20260509060548 71 0 0.0 0.0 0.00 0.00 0.00 87 1011.4
20260509060056 71 0 0.0 0.0 0.00 0.00 0.00 86 1011.4
20260509055547 71 0 0.0 0.0 0.00 0.00 0.00 86 1011.5
20260509055050 71 0 0.0 0.0 0.00 0.00 0.00 86 1011.5
20260509054552 71 0 0.0 0.0 0.00 0.00 0.00 86 1011.5
20260509054045 71 0 0.0 0.0 0.00 0.00 0.00 86 1011.6
20260509053544 71 0 0.0 0.0 0.00 0.00 0.00 86 1011.6
20260509053050 71 0 0.0 0.0 0.00 0.00 0.00 86 1011.4
20260509052546 71 0 0.0 0.0 0.00 0.00 0.00 86 1011.2
20260509052045 71 0 0.0 0.0 0.00 0.00 0.00 86 1011.2
20260509051553 71 0 0.0 0.0 0.00 0.00 0.00 86 1011.3
20260509051045 71 0 0.0 0.0 0.00 0.00 0.00 86 1011.1
20260509050548 71 0 0.0 0.0 0.00 0.00 0.00 86 1011.0
20260509045547 71 0 0.0 0.0 0.00 0.00 0.00 86 1010.9
20260509045046 71 0 0.0 0.0 0.00 0.00 0.00 86 1010.7
20260509044559 71 0 0.0 0.0 0.00 0.00 0.00 86 1010.7
20260509044046 71 0 0.0 0.0 0.00 0.00 0.00 86 1010.5
20260509043548 71 0 0.0 0.0 0.00 0.00 0.00 86 1010.4
20260509043102 71 0 0.0 0.0 0.00 0.00 0.00 86 1010.6
20260509042545 71 0 0.0 0.0 0.00 0.00 0.00 85 1010.6
20260509042046 71 0 0.0 0.0 0.00 0.00 0.00 85 1010.7
20260509041558 70 0 0.0 0.0 0.00 0.00 0.00 85 1010.6
20260509041046 70 0 0.0 0.0 0.00 0.00 0.00 85 1010.8
20260509040548 70 0 0.0 0.0 0.00 0.00 0.00 85 1010.9
20260509040055 70 0 0.0 0.0 0.00 0.00 0.00 84 1010.9
20260509035547 70 0 0.0 0.0 0.00 0.00 0.00 84 1010.9
20260509035045 70 0 0.0 0.0 0.00 0.00 0.00 84 1010.9
20260509034601 70 0 0.0 0.0 0.00 0.00 0.00 83 1010.7
20260509034046 70 0 0.0 0.0 0.00 0.00 0.00 83 1010.6
20260509033545 70 0 0.0 0.0 0.00 0.00 0.00 83 1010.6
20260509033104 70 0 0.0 0.0 0.00 0.00 0.00 83 1010.6
20260509032547 70 0 0.0 0.0 0.00 0.00 0.00 83 1010.4
20260509032046 70 0 0.0 0.0 0.00 0.00 0.00 83 1010.2
20260509031554 70 0 0.0 0.0 0.00 0.00 0.00 83 1010.3
20260509031046 71 0 0.0 0.0 0.00 0.00 0.00 82 1010.2
20260509030546 71 0 0.0 0.0 0.00 0.00 0.00 82 1010.1
20260509030054 71 0 0.0 0.0 0.00 0.00 0.00 82 1009.9
20260509025545 71 0 0.0 0.0 0.00 0.00 0.00 82 1009.9
20260509025045 71 0 0.0 0.0 0.00 0.00 0.00 82 1009.8
20260509024601 71 0 0.0 0.0 0.00 0.00 0.00 81 1009.9
20260509024045 71 0 0.0 0.0 0.00 0.00 0.00 81 1009.8
20260509023545 72 0 0.0 0.0 0.00 0.00 0.00 81 1009.7
20260509023052 72 0 0.0 0.0 0.00 0.00 0.00 81 1009.8
20260509022545 72 0 0.0 0.0 0.00 0.00 0.00 81 1009.7
20260509022045 72 0 0.0 0.0 0.00 0.00 0.00 81 1009.7
20260509021549 72 0 0.0 0.0 0.00 0.00 0.00 81 1009.5
20260509021049 73 0 0.0 0.0 0.00 0.00 0.00 80 1009.5
20260509020544 73 0 0.0 0.0 0.00 0.00 0.00 80 1009.4
20260509020051 73 0 0.0 0.0 0.00 0.00 0.00 80 1009.4
20260509015545 73 0 0.0 0.0 0.00 0.00 0.00 80 1009.2
20260509015118 73 0 0.0 0.0 0.00 0.00 0.00 80 1009.1
20260509014553 74 0 0.0 0.0 0.00 0.00 0.00 80 1009.0
20260509014047 74 0 0.0 0.0 0.00 0.00 0.00 79 1009.0
20260509013545 74 0 0.0 0.0 0.00 0.00 0.00 79 1009.0
20260509013059 74 0 0.0 0.0 0.00 0.00 0.00 79 1008.9
20260509012545 74 0 0.0 0.0 0.00 0.00 0.00 78 1008.8
20260509012045 75 0 0.0 0.0 0.00 0.00 0.00 78 1008.8
20260509011603 75 0 0.0 3.0 0.00 0.00 0.00 78 1008.9
20260509011045 75 0 0.0 3.0 0.00 0.00 0.00 78 1008.8
20260509010547 75 0 0.0 0.0 0.00 0.00 0.00 77 1008.8
20260509010056 76 0 0.0 0.0 0.00 0.00 0.00 77 1008.8
20260509005545 76 0 0.0 0.0 0.00 0.00 0.00 76 1008.8
20260509005043 76 0 0.0 1.0 0.00 0.00 0.00 76 1008.5
20260509004559 77 0 0.0 6.0 0.00 0.00 0.00 75 1008.6
20260509004046 77 0 0.0 6.0 0.00 0.00 0.00 75 1008.5
20260509003546 77 0 0.0 6.0 0.00 0.00 0.00 74 1008.3
20260509003059 77 224 0.0 4.0 0.00 0.00 0.00 74 1008.6
20260509002549 78 236 0.0 5.0 0.00 0.00 0.00 73 1008.8
20260509002045 78 0 0.0 5.0 0.00 0.00 0.00 73 1008.9
20260509001600 78 0 0.0 5.0 0.00 0.00 0.00 73 1008.9
20260509001046 79 0 0.0 5.0 0.00 0.00 0.00 72 1008.9
20260509000546 79 275 0.0 7.0 0.00 0.00 0.00 72 1008.8
20260509000053 79 0 1.0 7.0 0.00 0.00 0.00 72 1008.8
20260508235546 79 0 0.0 7.0 0.00 0.00 0.00 71 1009.0
20260508235046 79 0 0.0 4.0 0.00 0.00 0.00 71 1009.2
20260508234551 80 0 0.0 4.0 0.00 0.00 0.00 71 1009.3
20260508234048 80 243 0.0 2.0 0.00 0.00 0.00 70 1009.3
20260508233544 80 0 0.0 0.0 0.00 0.00 0.00 70 1009.4
20260508233054 80 0 0.0 0.0 0.00 0.00 0.00 70 1009.4
20260508232543 80 0 0.0 3.0 0.00 0.00 0.00 70 1009.4
20260508232047 80 0 0.0 3.0 0.00 0.00 0.00 70 1009.4
20260508231555 80 0 0.0 5.0 0.00 0.00 0.00 70 1009.3
20260508231047 80 0 0.0 5.0 0.00 0.00 0.00 70 1009.3
20260508230546 80 262 0.0 4.0 0.00 0.00 0.00 70 1009.4
20260508230053 80 0 0.0 3.0 0.00 0.00 0.00 71 1009.4
20260508225547 80 0 0.0 3.0 0.00 0.00 0.00 71 1009.4
20260508225047 80 0 0.0 0.0 0.00 0.00 0.00 71 1009.5
20260508224608 79 0 0.0 4.0 0.00 0.00 0.00 72 1009.6
20260508224047 79 0 0.0 4.0 0.00 0.00 0.00 72 1009.6
20260508223547 79 0 0.0 3.0 0.00 0.00 0.00 72 1009.6
20260508223051 79 0 0.0 3.0 0.00 0.00 0.00 73 1009.8
20260508222547 78 0 0.0 3.0 0.00 0.00 0.00 72 1009.7
20260508222043 78 0 0.0 0.0 0.00 0.00 0.00 74 1009.6
20260508221602 78 0 0.0 0.0 0.00 0.00 0.00 73 1009.7
20260508221047 78 0 0.0 0.0 0.00 0.00 0.00 73 1009.9
20260508220546 78 0 0.0 0.0 0.00 0.00 0.00 72 1010.0
20260508220051 78 0 0.0 0.0 0.00 0.00 0.00 72 1010.2
20260508215547 78 0 0.0 0.0 0.00 0.00 0.00 73 1010.3
20260508215047 78 0 0.0 0.0 0.00 0.00 0.00 72 1010.3
20260508214551 78 0 0.0 0.0 0.00 0.00 0.00 72 1010.4
20260508214049 79 0 0.0 0.0 0.00 0.00 0.00 71 1010.5
20260508213546 79 0 0.0 0.0 0.00 0.00 0.00 70 1010.6
20260508213049 79 0 0.0 0.0 0.00 0.00 0.00 69 1010.6
20260508212547 79 0 0.0 0.0 0.00 0.00 0.00 68 1010.7
20260508212047 80 0 0.0 0.0 0.00 0.00 0.00 67 1010.7
20260508211554 80 0 0.0 0.0 0.00 0.00 0.00 67 1010.7
20260508211046 80 0 0.0 0.0 0.00 0.00 0.00 67 1010.8
20260508210544 81 0 0.0 0.0 0.00 0.00 0.00 68 1010.7
20260508210056 81 0 0.0 0.0 0.00 0.00 0.00 67 1010.8
20260508205543 81 0 0.0 0.0 0.00 0.00 0.00 67 1010.7
20260508205044 81 0 0.0 0.0 0.00 0.00 0.00 67 1010.8
20260508204553 81 0 0.0 0.0 0.00 0.00 0.00 66 1010.8
20260508204043 81 0 0.0 0.0 0.00 0.00 0.00 68 1010.7
20260508203545 80 0 0.0 0.0 0.00 0.00 0.00 67 1010.8
20260508203100 80 0 0.0 0.0 0.00 0.00 0.00 67 1010.7
20260508202545 80 0 0.0 0.0 0.00 0.00 0.00 67 1010.6
20260508202045 80 0 0.0 0.0 0.00 0.00 0.00 67 1010.6
20260508201554 80 0 0.0 0.0 0.00 0.00 0.00 68 1010.8
20260508201045 79 0 0.0 0.0 0.00 0.00 0.00 69 1010.8
20260508200549 78 0 0.0 0.0 0.00 0.00 0.00 69 1010.9
20260508200106 78 0 0.0 0.0 0.00 0.00 0.00 70 1011.0
20260508195546 78 0 0.0 0.0 0.00 0.00 0.00 69 1011.1
20260508195046 77 0 0.0 0.0 0.00 0.00 0.00 70 1011.1
20260508194549 77 0 0.0 0.0 0.00 0.00 0.00 70 1011.2
20260508194045 77 0 0.0 0.0 0.00 0.00 0.00 70 1011.3
20260508193545 77 0 0.0 0.0 0.00 0.00 0.00 70 1011.5
20260508193059 77 0 0.0 0.0 0.00 0.00 0.00 69 1011.6
20260508192546 76 0 0.0 0.0 0.00 0.00 0.00 70 1011.7
20260508192046 76 0 0.0 0.0 0.00 0.00 0.00 70 1011.8
20260508191554 76 0 0.0 0.0 0.00 0.00 0.00 70 1011.8
20260508191045 76 0 0.0 0.0 0.00 0.00 0.00 70 1011.9
20260508190545 76 0 0.0 0.0 0.00 0.00 0.00 71 1011.8
20260508190052 75 0 0.0 0.0 0.00 0.00 0.00 70 1011.9
20260508185542 75 0 0.0 0.0 0.00 0.00 0.00 70 1012.1
20260508185042 75 0 0.0 0.0 0.00 0.00 0.00 70 1012.0
20260508184555 75 0 0.0 0.0 0.00 0.00 0.00 70 1012.1
20260508184047 75 0 0.0 0.0 0.00 0.00 0.00 70 1012.2
20260508183545 75 0 0.0 0.0 0.00 0.00 0.00 70 1012.2
20260508183113 75 0 0.0 0.0 0.00 0.00 0.00 71 1012.2
20260508182543 75 0 0.0 0.0 0.00 0.00 0.00 70 1012.3
20260508182048 75 0 0.0 0.0 0.00 0.00 0.00 71 1012.5
20260508181609 75 0 0.0 6.0 0.00 0.00 0.00 71 1012.7
20260508181044 75 0 0.0 6.0 0.00 0.00 0.00 71 1012.6
20260508180547 74 250 0.0 6.0 0.00 0.00 0.00 72 1012.6
20260508180051 74 0 0.0 0.0 0.00 0.00 0.00 73 1012.7
20260508175544 74 0 0.0 0.0 0.00 0.00 0.00 73 1013.0
20260508175049 73 0 0.0 0.0 0.00 0.00 0.00 74 1013.0
20260508174554 73 0 0.0 0.0 0.00 0.00 0.00 74 1013.2
20260508174046 72 0 0.0 0.0 0.00 0.00 0.00 75 1013.2
20260508173545 72 0 0.0 0.0 0.00 0.00 0.00 77 1013.2
20260508173103 71 0 0.0 3.0 0.00 0.00 0.00 78 1013.2
20260508172546 71 0 0.0 3.0 0.00 0.00 0.00 78 1013.3
20260508172048 70 0 0.0 3.0 0.00 0.00 0.00 78 1013.5
20260508171555 70 0 0.0 2.0 0.00 0.00 0.00 78 1013.9
20260508171044 70 0 0.0 2.0 0.00 0.00 0.00 78 1013.9
20260508170545 70 0 0.0 1.0 0.00 0.00 0.00 78 1014.0
20260508170051 69 0 0.0 0.0 0.00 0.00 0.00 78 1014.0
20260508165545 69 0 0.0 0.0 0.00 0.00 0.00 79 1014.0
20260508165044 69 0 0.0 0.0 0.00 0.00 0.00 79 1014.1
20260508164552 69 0 0.0 0.0 0.00 0.00 0.00 79 1014.3
20260508164045 69 0 0.0 0.0 0.00 0.00 0.00 79 1014.4
20260508163546 69 0 0.0 2.0 0.00 0.00 0.00 79 1014.3
20260508163050 69 0 0.0 2.0 0.00 0.00 0.00 79 1014.3
20260508162546 69 0 0.0 2.0 0.00 0.00 0.00 80 1014.3
20260508162046 68 0 0.0 3.0 0.00 0.00 0.00 80 1014.3
20260508161552 68 0 0.0 3.0 0.00 0.00 0.00 80 1014.4
20260508161045 68 0 0.0 0.0 0.00 0.00 0.00 81 1014.5
20260508160545 68 0 0.0 0.0 0.00 0.00 0.00 81 1014.6
20260508160100 68 0 0.0 0.0 0.00 0.00 0.00 81 1014.7
20260508155544 68 0 0.0 0.0 0.00 0.00 0.00 82 1014.9
20260508155045 67 0 0.0 0.0 0.00 0.00 0.00 83 1015.0
20260508154550 67 0 0.0 0.0 0.00 0.00 0.00 83 1015.1
20260508154045 67 0 0.0 0.0 0.00 0.00 0.00 83 1015.0
20260508153548 67 0 0.0 0.0 0.00 0.00 0.00 83 1014.8
20260508153051 67 0 0.0 0.0 0.00 0.00 0.00 83 1014.6
20260508152548 66 0 0.0 0.0 0.00 0.00 0.00 84 1014.8
20260508152044 66 0 0.0 0.0 0.00 0.00 0.00 84 1015.0
20260508151553 66 0 0.0 0.0 0.00 0.00 0.00 84 1014.9
20260508151047 66 0 0.0 0.0 0.00 0.00 0.00 85 1014.7
20260508150546 66 0 0.0 0.0 0.00 0.00 0.00 85 1014.5
20260508150120 65 0 0.0 0.0 0.00 0.00 0.00 85 1014.6
20260508145553 65 0 0.0 0.0 0.00 0.00 0.00 86 1014.7
20260508145048 65 0 0.0 3.0 0.00 0.00 0.00 87 1014.6
20260508144558 65 0 0.0 4.0 0.00 0.00 0.00 87 1014.7
20260508144048 64 231 0.0 4.0 0.00 0.00 0.00 88 1014.7
20260508143552 64 0 0.0 4.0 0.00 0.00 0.00 88 1014.9
20260508143054 64 0 0.0 0.0 0.00 0.00 0.00 89 1014.9
20260508142547 63 0 0.0 3.0 0.00 0.00 0.00 89 1014.9
20260508142050 63 0 0.0 3.0 0.00 0.00 0.00 89 1014.9
20260508141602 63 0 0.0 0.0 0.00 0.00 0.00 90 1014.8
20260508141046 63 0 0.0 0.0 0.00 0.00 0.00 90 1014.9
20260508140547 63 0 0.0 0.0 0.00 0.00 0.00 90 1014.7
20260508140100 62 0 0.0 3.0 0.00 0.00 0.00 90 1014.9
20260508135546 62 0 0.0 3.0 0.00 0.00 0.00 90 1014.7
20260508135046 62 0 0.0 3.0 0.00 0.00 0.00 90 1014.7
20260508134556 61 0 0.0 0.0 0.00 0.00 0.00 90 1014.6
20260508134049 61 0 0.0 0.0 0.00 0.00 0.00 90 1014.6
20260508133548 60 0 0.0 0.0 0.00 0.00 0.00 90 1014.5
20260508133053 60 0 0.0 0.0 0.00 0.00 0.00 90 1014.5
20260508132548 60 0 0.0 0.0 0.00 0.00 0.00 90 1014.5
20260508132048 59 0 0.0 0.0 0.00 0.00 0.00 90 1014.7
20260508131557 59 0 0.0 0.0 0.00 0.00 0.00 90 1014.7
20260508131048 59 0 0.0 0.0 0.00 0.00 0.00 90 1014.7
20260508130547 59 0 0.0 0.0 0.00 0.00 0.00 90 1015.0
20260508130054 58 0 0.0 0.0 0.00 0.00 0.00 90 1015.0
20260508125547 58 0 0.0 0.0 0.00 0.00 0.00 90 1015.0
20260508125047 58 0 0.0 0.0 0.00 0.00 0.00 89 1015.0
20260508124602 58 0 0.0 0.0 0.00 0.00 0.00 89 1015.1